ROMMA est une association bénévole à but non lucratif. Votre soutien est indispensable : ADHERER à ROMMA ou FAIRE un DON

Voiron - (38, Isère)

Voironnais (300 m)   Longitude: 05° 35' E   Latitude: 45° 23' N Station partenaire n°109
 

Détail journalier du     <<     >>

Température Precipitation Humidité Pression Vent Dir Rafale Dir. rafale Ensol.
Heure (°C) (mm) (%) (hPa) (km/h) (km/h) (min)
01:00 14.709510132ESE10ONO0
02:00 14.509610122ONO8S0
03:00 14.909210132SSO6SO0
04:00 14.709310122N6N0
05:00 15.209110112SSE11NO0
06:00 14.71.29410123ESE13ESE0
07:00 14.72.49310122E11SSO0
08:00 14.539510123NNE11SE0
09:00 14.90.29010118S32S0
10:00 14.3092101113SE34SSO0
11:00 15.408810104N15ESE0
12:00 17.908010105E18ESE30
13:00 18.307910096ESE23SSO0
14:00 19.307410082E16E0
15:00 19.107810073NO10NNO0
16:00 20.007110073SSO32SE0
17:00 19.707210073N16NO0
18:00 19.607510085NO26NO0
19:00 18.507910076NO16NNO0
20:00 19.706910086NO19ONO0
21:00 20.406610086SSO37SSO0
22:00 21.9055100810SSO44S0
23:00 20.106310085ONO26OSO0
minuit 21.805310086S24SO0

Graphique du 19-10-2019

 

Serveur OMMA